• în Republica Moldova
  • Lista ţărilor
  • Pe 7 zile
  • Temperatura apei
  • Hartă satelitară
  • Meteo pe hartă
  • Widget-uri
  • user-avatar
    Intrare

    Meteo pe oră la Bregenz

    Astăzi, 19 Februarie, Duminică

    Timp Temperatura Precipitaţii Vânt Presiune Umiditate
    00:00 -7°C° 0 mm 1 m/s 647 mmHg 92%
    01:00 -8°C° 0 mm 1 m/s 646 mmHg 92%
    02:00 -8°C° 0 mm 1 m/s 646 mmHg 91%
    03:00 -9°C° 0 mm 2 m/s 646 mmHg 90%
    04:00 -9°C° 0 mm 2 m/s 646 mmHg 89%
    05:00 -9°C° 0 mm 2 m/s 646 mmHg 88%
    06:00 -9°C° 0 mm 2 m/s 646 mmHg 86%
    07:00 -9°C° 0 mm 2 m/s 646 mmHg 84%
    08:00 -7°C° 0 mm 2 m/s 647 mmHg 83%
    09:00 -2°C° 0 mm 1 m/s 647 mmHg 83%
    10:00 0°C° 0 mm 1 m/s 648 mmHg 82%
    11:00 +1°C° 0 mm 1 m/s 648 mmHg 80%
    12:00 +1°C° 0 mm 2 m/s 648 mmHg 79%
    13:00 +2°C° 0 mm 2 m/s 648 mmHg 77%
    14:00 +2°C° 0 mm 2 m/s 648 mmHg 78%
    15:00 +2°C° 0 mm 2 m/s 648 mmHg 80%
    16:00 +2°C° 0 mm 2 m/s 647 mmHg 82%
    17:00 0°C° 0 mm 1 m/s 647 mmHg 86%
    18:00 -2°C° 0 mm 1 m/s 646 mmHg 90%
    19:00 -6°C° 0 mm 1 m/s 646 mmHg 94%
    20:00 -6°C° 0 mm 1 m/s 646 mmHg 94%
    21:00 -7°C° 0 mm 1 m/s 646 mmHg 93%
    22:00 -7°C° 0 mm 1 m/s 646 mmHg 93%
    23:00 -7°C° 0 mm 1 m/s 647 mmHg 93%

    Mâine, 20 Februarie, Luni

    Timp Temperatura Precipitaţii Vânt Presiune Umiditate
    00:00 -6°C° 0 mm 1 m/s 647 mmHg 92%
    01:00 -6°C° 0 mm 1 m/s 647 mmHg 92%
    02:00 -6°C° 0 mm 1 m/s 647 mmHg 91%
    03:00 -7°C° 0 mm 2 m/s 647 mmHg 90%
    04:00 -7°C° 0 mm 2 m/s 647 mmHg 90%
    05:00 -7°C° 0 mm 2 m/s 647 mmHg 89%
    06:00 -7°C° 0 mm 2 m/s 647 mmHg 88%
    07:00 -7°C° 0 mm 2 m/s 647 mmHg 87%
    08:00 -3°C° 0 mm 1 m/s 647 mmHg 84%
    09:00 -1°C° 0 mm 1 m/s 648 mmHg 81%
    10:00 +1°C° 0 mm 1 m/s 648 mmHg 79%
    11:00 +2°C° 0 mm 1 m/s 648 mmHg 78%
    12:00 +2°C° 0 mm 2 m/s 648 mmHg 77%
    13:00 +3°C° 0 mm 2 m/s 648 mmHg 76%
    14:00 +2°C° 0 mm 2 m/s 647 mmHg 78%
    15:00 +2°C° 0 mm 2 m/s 647 mmHg 80%
    16:00 +3°C° 0 mm 1 m/s 647 mmHg 82%
    17:00 -1°C° 0 mm 2 m/s 646 mmHg 86%
    18:00 -3°C° 0 mm 2 m/s 646 mmHg 89%
    19:00 -6°C° 0 mm 2 m/s 646 mmHg 93%
    20:00 -5°C° 0 mm 2 m/s 646 mmHg 91%
    21:00 -5°C° 0 mm 2 m/s 646 mmHg 89%
    22:00 -5°C° 0 mm 2 m/s 646 mmHg 87%
    23:00 -4°C° 0,1 mm 2 m/s 646 mmHg 87%

    Poimâine, 21 Februarie, Marţi

    Timp Temperatura Precipitaţii Vânt Presiune Umiditate
    00:00 -4°C° 0,1 mm 2 m/s 646 mmHg 86%
    01:00 -3°C° 0,1 mm 2 m/s 646 mmHg 86%
    02:00 -3°C° 0,4 mm 2 m/s 646 mmHg 88%
    03:00 -2°C° 0,4 mm 2 m/s 646 mmHg 90%
    04:00 -2°C° 0,4 mm 2 m/s 645 mmHg 91%
    05:00 -2°C° 0,3 mm 2 m/s 645 mmHg 92%
    06:00 -1°C° 0,3 mm 2 m/s 645 mmHg 93%
    07:00 -1°C° 0,3 mm 2 m/s 645 mmHg 94%
    08:00 +1°C° 0,2 mm 2 m/s 645 mmHg 94%
    09:00 +1°C° 0,2 mm 2 m/s 646 mmHg 94%
    10:00 +2°C° 0,2 mm 2 m/s 646 mmHg 94%
    11:00 +3°C° 0,1 mm 2 m/s 646 mmHg 94%
    12:00 +3°C° 0,1 mm 2 m/s 646 mmHg 94%
    13:00 +4°C° 0,1 mm 2 m/s 646 mmHg 93%
    14:00 +4°C° 0,1 mm 2 m/s 646 mmHg 94%
    15:00 +4°C° 0,1 mm 2 m/s 645 mmHg 94%
    16:00 +4°C° 0,1 mm 2 m/s 645 mmHg 94%
    17:00 +3°C° 0,1 mm 2 m/s 645 mmHg 95%
    18:00 +2°C° 0,1 mm 2 m/s 645 mmHg 96%
    19:00 +1°C° 0,1 mm 2 m/s 645 mmHg 97%
    20:00 +1°C° 0,1 mm 2 m/s 645 mmHg 97%
    21:00 +1°C° 0,1 mm 2 m/s 645 mmHg 97%
    22:00 +1°C° 0,1 mm 2 m/s 645 mmHg 96%
    23:00 +1°C° 0 mm 2 m/s 645 mmHg 96%

    22 Februarie, Miercuri

    Timp Temperatura Precipitaţii Vânt Presiune Umiditate
    00:00 -1°C° 0 mm 2 m/s 645 mmHg 96%
    01:00 -1°C° 0 mm 2 m/s 645 mmHg 95%
    02:00 -2°C° 0 mm 2 m/s 644 mmHg 95%
    03:00 -2°C° 0 mm 2 m/s 644 mmHg 94%
    04:00 -2°C° 0 mm 2 m/s 643 mmHg 94%
    05:00 -2°C° 0 mm 2 m/s 643 mmHg 94%
    06:00 -2°C° 0 mm 2 m/s 643 mmHg 93%
    07:00 -2°C° 0 mm 2 m/s 643 mmHg 93%
    08:00 -1°C° 0 mm 2 m/s 643 mmHg 92%
    09:00 +1°C° 0 mm 3 m/s 644 mmHg 90%
    10:00 +2°C° 0 mm 3 m/s 644 mmHg 89%
    11:00 +3°C° 0 mm 3 m/s 644 mmHg 88%
    12:00 +3°C° 0 mm 3 m/s 644 mmHg 87%
    13:00 +4°C° 0 mm 4 m/s 644 mmHg 87%
    14:00 +4°C° 0 mm 4 m/s 643 mmHg 87%
    15:00 +4°C° 0 mm 4 m/s 643 mmHg 88%
    16:00 +4°C° 0 mm 4 m/s 643 mmHg 88%
    17:00 +2°C° 0 mm 3 m/s 643 mmHg 91%
    18:00 +1°C° 0 mm 3 m/s 643 mmHg 93%
    19:00 -1°C° 0 mm 3 m/s 642 mmHg 95%
    20:00 -1°C° 0 mm 3 m/s 643 mmHg 95%
    21:00 -1°C° 0 mm 3 m/s 643 mmHg 95%
    22:00 -1°C° 0 mm 3 m/s 643 mmHg 95%
    23:00 -1°C° 0,1 mm 3 m/s 643 mmHg 94%

    23 Februarie, Joi

    Timp Temperatura Precipitaţii Vânt Presiune Umiditate
    00:00 -1°C° 0,1 mm 3 m/s 643 mmHg 93%
    01:00 -1°C° 0,1 mm 3 m/s 643 mmHg 93%
    02:00 -1°C° 0,1 mm 3 m/s 643 mmHg 92%
    03:00 -1°C° 0,1 mm 3 m/s 643 mmHg 91%
    04:00 -1°C° 0,1 mm 3 m/s 643 mmHg 90%
    05:00 -1°C° 0,1 mm 3 m/s 643 mmHg 90%
    06:00 -1°C° 0,1 mm 3 m/s 643 mmHg 90%
    07:00 -1°C° 0,1 mm 3 m/s 643 mmHg 90%
    08:00 0°C° 0 mm 3 m/s 643 mmHg 89%
    09:00 +1°C° 0 mm 3 m/s 643 mmHg 88%
    10:00 +3°C° 0 mm 2 m/s 643 mmHg 86%
    11:00 +3°C° 0 mm 3 m/s 643 mmHg 85%
    12:00 +4°C° 0 mm 3 m/s 643 mmHg 84%
    13:00 +4°C° 0 mm 3 m/s 642 mmHg 83%
    14:00 +4°C° 0,1 mm 3 m/s 642 mmHg 85%
    15:00 +4°C° 0,1 mm 3 m/s 641 mmHg 87%
    16:00 +4°C° 0,1 mm 3 m/s 641 mmHg 89%
    17:00 +3°C° 0,3 mm 3 m/s 640 mmHg 91%
    18:00 +2°C° 0,3 mm 3 m/s 640 mmHg 94%
    19:00 +1°C° 0,3 mm 3 m/s 640 mmHg 97%
    20:00 +1°C° 0,6 mm 3 m/s 640 mmHg 96%
    21:00 +1°C° 0,6 mm 3 m/s 640 mmHg 96%
    22:00 0°C° 0,6 mm 4 m/s 639 mmHg 96%
    23:00 0°C° 0,5 mm 4 m/s 639 mmHg 96%

    24 Februarie, Vineri

    Timp Temperatura Precipitaţii Vânt Presiune Umiditate
    00:00 0°C° 0,5 mm 4 m/s 639 mmHg 95%
    01:00 0°C° 0,5 mm 4 m/s 638 mmHg 95%
    02:00 0°C° 0,7 mm 4 m/s 638 mmHg 95%
    03:00 0°C° 0,7 mm 5 m/s 638 mmHg 95%
    04:00 0°C° 0,7 mm 5 m/s 638 mmHg 95%
    05:00 -1°C° 1,1 mm 5 m/s 639 mmHg 95%
    06:00 -1°C° 1,1 mm 5 m/s 639 mmHg 95%
    07:00 -1°C° 1,1 mm 5 m/s 639 mmHg 95%
    08:00 -1°C° 1,5 mm 4 m/s 640 mmHg 95%
    09:00 -1°C° 1,5 mm 4 m/s 640 mmHg 94%
    10:00 -2°C° 1,5 mm 4 m/s 641 mmHg 93%
    11:00 -2°C° 0,8 mm 4 m/s 641 mmHg 92%
    12:00 -2°C° 0,8 mm 4 m/s 641 mmHg 91%
    13:00 -2°C° 0,8 mm 4 m/s 642 mmHg 90%
    14:00 -2°C° 0,3 mm 4 m/s 642 mmHg 90%
    15:00 -1°C° 0,3 mm 3 m/s 642 mmHg 90%
    16:00 -1°C° 0,3 mm 3 m/s 643 mmHg 90%
    17:00 -1°C° 0,1 mm 3 m/s 643 mmHg 92%
    18:00 -2°C° 0,1 mm 3 m/s 644 mmHg 93%
    19:00 -3°C° 0,1 mm 2 m/s 645 mmHg 95%
    20:00 -3°C° 0 mm 2 m/s 645 mmHg 96%
    21:00 -4°C° 0 mm 2 m/s 646 mmHg 96%
    22:00 -2°C° 0 mm 1 m/s 646 mmHg 97%
    23:00 -4°C° 0 mm 2 m/s 646 mmHg 96%
    Arată mai mult